Flag for Norway Weather past 2 weeks in Bodø, Norway

Now
28 °F

Clear.


Feels Like: 18 °F
Forecast: 22 / 27 °F
Wind: 12 mph from East

Location: Bodo Vi

Current Time: Feb 1, 2015 at 10:22:01 PM

Latest Report: Feb 1, 2015 at 9:50 PM


Visibility: 10 mi

Pressure: 29.27 "Hg

Humidity: 69%

Dew point: 19 °F

Location of BodøLocation

Historic Weather in Bodø — Graph

°F

Bodø temperature yesterday

Maximum temperature yesterday: 30 °F (at 11:20 AM)
Minimum temperature yesterday: 27 °F (at 12:50 AM)
Average temperature yesterday: 29 °F

Past Weeks' High & Low Weather Summary

 TemperatureHumidityPressure
High43 °F (Jan 26, 9:50 AM)100% (Jan 18, 6:20 AM)30.36 "Hg (Jan 18, 6:20 AM)
Low-6 °F (Jan 29, 12:50 PM)33% (Jan 23, 12:50 PM)28.74 "Hg (Jan 28, 9:20 PM)
Average29 °F69%29.57 "Hg
* Reported Jan 17 8:20 PM — Feb 1 8:50 PM, Bodø, Weather by CustomWeather, © 2014

Note: Actual official high and low records may vary slightly from our data, if they occured in-between our weather recording intervals... More about our weather records

Advertising

Bodø weather history for previous 24 hours

 ConditionsComfort  
Time TempWeatherWind HumidityBarometerVisibility
8:50 PM
Feb 1
28 °FClear.12 mph69%29.27 "Hg10 mi
8:20 PM28 °FClear.9 mph69%29.27 "Hg10 mi
7:50 PM28 °FClear.9 mph64%29.27 "Hg10 mi
7:20 PM28 °FClear.9 mph64%29.27 "Hg10 mi
6:50 PM27 °FClear.10 mph69%29.27 "Hg10 mi
6:20 PM28 °FClear.9 mph64%29.27 "Hg10 mi
5:50 PM28 °FPartly cloudy.8 mph64%29.27 "HgN/A
5:20 PM28 °FPartly cloudy.9 mph64%29.27 "HgN/A
4:50 PM27 °FPartly cloudy.9 mph69%29.27 "HgN/A
4:20 PM27 °FPartly cloudy.13 mph69%29.27 "HgN/A
3:50 PM27 °FPartly cloudy.9 mph69%29.27 "HgN/A
3:20 PM27 °FPartly cloudy.9 mph69%29.27 "HgN/A
2:50 PM27 °FBroken clouds.10 mph69%29.27 "HgN/A
2:20 PM27 °FBroken clouds.9 mph69%29.27 "HgN/A
1:50 PM27 °FPartly sunny.10 mph69%29.30 "HgN/A
1:20 PM28 °FPartly sunny.8 mph69%29.30 "HgN/A
12:50 PM28 °FPartly sunny.9 mph64%29.30 "HgN/A
12:20 PM28 °FPartly sunny.13 mph64%29.30 "HgN/A
11:50 AM28 °FPartly sunny.12 mph64%29.33 "HgN/A
11:20 AM28 °FPartly sunny.13 mph64%29.33 "HgN/A
10:50 AM28 °FPartly sunny.13 mph69%29.33 "HgN/A
10:20 AM28 °FPartly sunny.12 mph69%29.33 "HgN/A
9:50 AM27 °FPartly sunny.14 mph74%29.33 "HgN/A
9:20 AM28 °FSunny.10 mph69%29.36 "Hg10 mi
8:50 AM28 °FClear.10 mph69%29.36 "Hg10 mi
8:20 AM28 °FClear.12 mph64%29.36 "Hg10 mi
7:50 AM28 °FClear.12 mph64%29.36 "Hg10 mi
7:20 AM27 °FClear.9 mph74%29.36 "Hg10 mi
6:50 AM27 °FClear.10 mph74%29.36 "Hg10 mi
6:20 AM28 °FClear.9 mph64%29.39 "Hg10 mi
5:50 AM27 °FClear.7 mph74%29.36 "Hg10 mi
5:20 AM28 °FClear.9 mph64%29.36 "Hg10 mi
4:50 AM28 °FClear.13 mph69%29.39 "Hg10 mi
3:50 AM28 °FClear.12 mph69%29.39 "Hg10 mi
2:50 AM30 °FClear.20 mph64%29.39 "Hg10 mi
1:50 AM28 °FClear.16 mph64%29.39 "Hg10 mi
12:50 AM30 °FClear.16 mph55%29.42 "Hg10 mi
11:50 PM
Jan 31
28 °FClear.20 mph59%29.42 "Hg10 mi
11:20 PM28 °FClear.21 mph59%29.42 "Hg10 mi
10:50 PM28 °FClear.20 mph59%29.42 "Hg10 mi
10:20 PM28 °FClear.21 mph64%29.42 "Hg10 mi
Weather by CustomWeather, © 2014

See weather overviewHow to use our weather pages